Weather History for Iliamna, AK

Change the Weather History Date:

Tuesday, March 25, 2014

  Actual Average Record
Temperature  
Mean Temperature 22 °F -  
Max Temperature 34 °F 34 °F 45 °F (1986)
Min Temperature 10 °F 19 °F -16 °F (1976)
Degree Days  
Heating Degree Days 43    
Moisture  
Dew Point 15 °F    
Average Humidity 71    
Maximum Humidity 96    
Minimum Humidity 43    
Precipitation  
Precipitation 0.00 in - - ()
Sea Level Pressure  
Sea Level Pressure 29.90 in    
Wind  
Wind Speed 5 mph (NE)    
Max Wind Speed 8 mph    
Max Gust Speed -    
Visibility 10 miles    
Events      
Averages and records for this station are not official NWS values.
T = Trace of Precipitation, MM = Missing Value Source: NWS Daily Summary

Daily Weather History Graph

Daily Weather History Graph

Search for Another Location

Airport:

Trip Planner

Search our weather history database for the weather conditions in past years. The results will help you decide how hot, cold, wet, or windy it might be!

Date:

Astronomy

Mar. 25, 2014 Rise Set
Actual Time 8:05 AM AKDT 8:46 PM AKDT
Civil Twilight 7:23 AM AKDT 9:28 PM AKDT
Nautical Twilight 6:33 AM AKDT 10:19 PM AKDT
Astronomical Twilight 5:36 AM AKDT 11:16 PM AKDT
Moon 5:49 AM AKDT (3/25) 2:19 PM AKDT (3/25)
Length of Visible Light 14h 04m
Length of Day
12h 41m
Waning Crescent, 30% of the Moon is Illuminated
Mar 25
Waning Crescent
Mar 30
New
Apr 7
First Quarter
Apr 14
Full
Apr 21
Last Quarter

Hourly Weather History & Observations

Time (AKDT) Temp. Windchill Dew Point Humidity Pressure Visibility Wind Dir Wind Speed Gust Speed Precip Events Conditions
12:53 AM 19.0 °F 11.1 °F 10.9 °F 71% 29.99 in 10.0 mi North 5.8 mph - N/A   Clear
1:53 AM 19.9 °F 12.1 °F 12.0 °F 71% 29.98 in 10.0 mi NE 5.8 mph - N/A   Clear
2:53 AM 19.0 °F 11.1 °F 12.0 °F 74% 29.97 in 10.0 mi NNE 5.8 mph - N/A   Clear
3:53 AM 16.0 °F 8.8 °F 10.0 °F 77% 29.96 in 10.0 mi NNE 4.6 mph - N/A   Clear
4:53 AM 18.0 °F 8.7 °F 10.9 °F 74% 29.95 in 10.0 mi NE 6.9 mph - N/A   Clear
5:53 AM 14.0 °F 2.9 °F 8.1 °F 77% 29.94 in 10.0 mi NNW 8.1 mph - N/A   Clear
6:53 AM 16.0 °F 8.8 °F 9.0 °F 74% 29.94 in 10.0 mi North 4.6 mph - N/A   Clear
7:53 AM 12.0 °F 0.5 °F 6.1 °F 77% 29.93 in 10.0 mi NNW 8.1 mph - N/A   Clear
8:53 AM 14.0 °F - 8.1 °F 77% 29.93 in 10.0 mi Calm Calm - N/A   Clear
9:53 AM 19.0 °F 11.1 °F 10.0 °F 68% 29.93 in 10.0 mi North 5.8 mph - N/A   Clear
10:53 AM 24.1 °F - 12.9 °F 62% 29.92 in 10.0 mi Calm Calm - N/A   Clear
11:53 AM 25.0 °F - 14.0 °F 63% 29.92 in 10.0 mi Calm Calm - N/A   Clear
12:53 PM 30.0 °F - 15.1 °F 54% 29.91 in 10.0 mi Calm Calm - N/A   Clear
1:53 PM 30.0 °F 25.2 °F 17.1 °F 59% 29.90 in 10.0 mi South 4.6 mph - N/A   Clear
2:53 PM 34.0 °F 31.0 °F 17.1 °F 50% 29.88 in 10.0 mi South 3.5 mph - N/A   Clear
3:53 PM 34.0 °F 28.0 °F 19.9 °F 56% 29.87 in 10.0 mi SSE 6.9 mph - N/A   Clear
4:53 PM 30.9 °F 25.2 °F 23.0 °F 72% 29.86 in 10.0 mi ESE 5.8 mph - N/A   Clear
5:53 PM 32.0 °F 26.4 °F 23.0 °F 69% 29.84 in 10.0 mi ENE 5.8 mph - N/A   Clear
6:53 PM 30.0 °F - 21.9 °F 72% 29.83 in 10.0 mi Calm Calm - N/A   Clear
7:53 PM 28.0 °F - 21.0 °F 75% 29.83 in 10.0 mi Calm Calm - N/A   Clear
8:53 PM 23.0 °F 18.4 °F 19.9 °F 88% 29.83 in 10.0 mi ENE 3.5 mph - N/A   Clear
9:53 PM 19.9 °F - 16.0 °F 85% 29.82 in 10.0 mi Calm Calm - N/A   Clear
10:53 PM 18.0 °F 12.7 °F 17.1 °F 96% 29.82 in 10.0 mi North 3.5 mph - N/A   Clear
11:53 PM 16.0 °F 10.4 °F 15.1 °F 96% 29.81 in 10.0 mi North 3.5 mph - N/A   Clear